Weather in Verkhniy Bemyzh

Russia / Udmurt Republic     56°13′39″N   51°42′28″E
temp.,
°C
wind,
m/s
gust,
m/s
humid.,
%
clouds,
%
prec.,
mm/h
press.,
hPa
HPBL,
m
1 august, sun
sun101:00+17sw34940 0.1 100760
04:00+16sw35932 0.1 100880
07:00+18wsw4118327 0.0 1008339
10:00+24wnw47520 0.0 1010750
13:00+27w684011 0.0 10102178
16:00+27w673989 0.0 10102200
19:00+23wsw3760100 0.0 1011219
22:00+19w2375100 0.0 101238
2 august, mon
mon201:00+17w227766 0.0 101320
04:00+16wsw228070 0.0 101316
07:00+19sw247096 0.0 1014145
10:00+25sw45495 0.0 1014756
13:00+28wsw463821 0.0 10131570
16:00+29wsw4537100 0.0 10121648
19:00+26s2256100 0.0 101238
22:00+21ssw226310 0.1 101211
3 august, tue
tue301:00+20ssw22645 0.1 101214
04:00+19s22645 0.1 101212
07:00+22sse256112 0.0 1011142
10:00+29s473673 0.0 1010537
13:00+33ssw592893 0.0 10091739
16:00+34sw59255 0.0 10082826
19:00+29s124682 0.0 100766
22:00+23se22638 0.3 100912
4 august, wed
wed401:00+19nnw117767 0.1 100817
04:00+19wsw117997 0.1 100918
07:00+21wsw237560 0.0 1009123
10:00+22w247390 0.0 1010248
13:00+28wsw3550100 0.0 10091245
16:00+25w466542 0.3 1010572
19:00+24nw586896 0.2 1010544
22:00+18nw3795100 0.2 1011147
5 august, thu
thu501:00+17nw379614 0.0 1012159
04:00+15nnw37965 0.0 1012139
07:00+17nnw47830 0.0 1013257
10:00+23nnw57574 0.0 1013913
13:00+25nnw663945 0.0 10132068
16:00+24nnw4538100 0.0 10132103
19:00+21nnw4854100 0.0 1014400
22:00+17nnw51268100 0.0 1014356